| time (UTC) | temp F | wind direction | speed knots | gust knots | rain 1hr in | rain 24hr in | rain mn in | humidity % | barometer mb |
| 20260509053000 | 48 | 167 | 3.5 | 5.2 | 0.00 | 0.00 | 0.00 | 56 | 1006.6 |
| 20260509051957 | 48 | 157 | 3.5 | 4.3 | 0.00 | 0.00 | 0.00 | 54 | 1006.7 |
| 20260509050957 | 48 | 169 | 2.6 | 5.2 | 0.00 | 0.00 | 0.00 | 53 | 1006.8 |
| 20260509050003 | 48 | 178 | 3.5 | 4.3 | 0.00 | 0.00 | 0.00 | 54 | 1006.8 |
| 20260509043957 | 48 | 161 | 0.9 | 2.6 | 0.00 | 0.00 | 0.00 | 52 | 1007.0 |
| 20260509040959 | 48 | 158 | 1.7 | 4.3 | 0.00 | 0.00 | 0.00 | 51 | 1007.1 |
| 20260509035000 | 47 | 158 | 1.7 | 2.6 | 0.00 | 0.00 | 0.00 | 54 | 1007.2 |
| 20260509034002 | 47 | 158 | 0.9 | 1.7 | 0.00 | 0.00 | 0.00 | 59 | 1007.3 |
| 20260509032958 | 46 | 158 | 0.9 | 1.7 | 0.00 | 0.00 | 0.00 | 60 | 1007.3 |
| 20260509031959 | 46 | 158 | 0.9 | 2.6 | 0.00 | 0.00 | 0.00 | 62 | 1007.4 |
| 20260509031000 | 47 | 158 | 0.0 | 0.9 | 0.00 | 0.00 | 0.00 | 61 | 1007.4 |
| 20260509025958 | 47 | 158 | 0.0 | 0.0 | 0.00 | 0.00 | 0.00 | 58 | 1007.7 |
| 20260509024957 | 47 | 158 | 0.0 | 0.9 | 0.00 | 0.00 | 0.00 | 59 | 1007.7 |
| 20260509023959 | 47 | 158 | 0.0 | 1.7 | 0.00 | 0.00 | 0.00 | 57 | 1007.8 |
| 20260509021013 | 48 | 158 | 0.9 | 2.6 | 0.00 | 0.00 | 0.00 | 58 | 1008.0 |
| 20260509015012 | 49 | 158 | 0.9 | 1.7 | 0.00 | 0.00 | 0.00 | 55 | 1007.9 |
| 20260509013001 | 51 | 158 | 1.7 | 2.6 | 0.00 | 0.00 | 0.00 | 48 | 1007.7 |
| 20260509012001 | 51 | 158 | 2.6 | 4.3 | 0.00 | 0.00 | 0.00 | 48 | 1007.7 |
| 20260509010002 | 54 | 158 | 2.6 | 4.3 | 0.00 | 0.00 | 0.00 | 39 | 1007.8 |
| 20260509005002 | 56 | 190 | 1.7 | 2.6 | 0.00 | 0.00 | 0.00 | 36 | 1007.8 |
| 20260509003958 | 57 | 111 | 0.9 | 1.7 | 0.00 | 0.00 | 0.00 | 32 | 1007.7 |
| 20260509003000 | 57 | 289 | 0.0 | 0.9 | 0.00 | 0.00 | 0.00 | 29 | 1007.8 |
| 20260509001959 | 58 | 289 | 0.9 | 2.6 | 0.00 | 0.00 | 0.00 | 34 | 1007.9 |
| 20260509001001 | 59 | 289 | 1.7 | 6.1 | 0.00 | 0.00 | 0.00 | 28 | 1007.9 |
| 20260509000004 | 60 | 315 | 4.3 | 7.0 | 0.00 | 0.00 | 0.00 | 25 | 1008.0 |
| 20260508235000 | 61 | 309 | 4.3 | 7.8 | 0.00 | 0.00 | 0.00 | 25 | 1008.2 |
| 20260508234001 | 61 | 297 | 4.3 | 8.7 | 0.00 | 0.00 | 0.00 | 23 | 1008.2 |
| 20260508233003 | 62 | 300 | 6.1 | 10.4 | 0.00 | 0.00 | 0.00 | 24 | 1008.3 |
| 20260508231957 | 62 | 286 | 6.1 | 9.6 | 0.00 | 0.00 | 0.00 | 23 | 1008.3 |
| 20260508231000 | 62 | 297 | 6.1 | 11.3 | 0.00 | 0.00 | 0.00 | 22 | 1008.3 |
| 20260508230006 | 62 | 293 | 7.8 | 11.3 | 0.00 | 0.00 | 0.00 | 22 | 1008.2 |
| 20260508225000 | 63 | 287 | 7.8 | 12.2 | 0.00 | 0.00 | 0.00 | 21 | 1008.2 |
| 20260508224002 | 62 | 328 | 5.2 | 10.4 | 0.00 | 0.00 | 0.00 | 21 | 1008.2 |
| 20260508223001 | 62 | 276 | 7.0 | 11.3 | 0.00 | 0.00 | 0.00 | 24 | 1008.3 |
| 20260508221959 | 62 | 269 | 11.3 | 14.8 | 0.00 | 0.00 | 0.00 | 24 | 1008.3 |
| 20260508221001 | 62 | 261 | 9.6 | 13.0 | 0.00 | 0.00 | 0.00 | 27 | 1008.3 |
| 20260508220004 | 62 | 259 | 9.6 | 13.9 | 0.00 | 0.00 | 0.00 | 23 | 1008.3 |
| 20260508214958 | 63 | 278 | 9.6 | 13.9 | 0.00 | 0.00 | 0.00 | 21 | 1008.4 |
| 20260508214001 | 63 | 253 | 7.8 | 13.0 | 0.00 | 0.00 | 0.00 | 25 | 1008.4 |
| 20260508213002 | 63 | 299 | 8.7 | 13.0 | 0.00 | 0.00 | 0.00 | 24 | 1008.3 |
| 20260508212002 | 63 | 258 | 7.8 | 15.6 | 0.00 | 0.00 | 0.00 | 23 | 1008.5 |
| 20260508210959 | 64 | 266 | 8.7 | 15.6 | 0.00 | 0.00 | 0.00 | 25 | 1008.5 |
| 20260508205958 | 63 | 257 | 10.4 | 13.9 | 0.00 | 0.00 | 0.00 | 22 | 1008.6 |
| 20260508205000 | 64 | 314 | 8.7 | 14.8 | 0.00 | 0.00 | 0.00 | 23 | 1008.5 |
| 20260508204000 | 64 | 294 | 7.0 | 17.4 | 0.00 | 0.00 | 0.00 | 23 | 1008.8 |
| 20260508202957 | 64 | 241 | 7.0 | 13.9 | 0.00 | 0.00 | 0.00 | 29 | 1008.9 |
| 20260508201959 | 63 | 233 | 9.6 | 13.9 | 0.00 | 0.00 | 0.00 | 25 | 1008.8 |
| 20260508200004 | 64 | 271 | 9.6 | 15.6 | 0.00 | 0.00 | 0.00 | 26 | 1009.1 |
| 20260508194958 | 64 | 264 | 6.1 | 15.6 | 0.00 | 0.00 | 0.00 | 23 | 1009.3 |
| 20260508194001 | 64 | 327 | 7.8 | 12.2 | 0.00 | 0.00 | 0.00 | 28 | 1009.3 |
| 20260508193002 | 64 | 288 | 9.6 | 14.8 | 0.00 | 0.00 | 0.00 | 27 | 1009.3 |
| 20260508191957 | 64 | 261 | 7.8 | 15.6 | 0.00 | 0.00 | 0.00 | 30 | 1009.5 |
| 20260508190003 | 62 | 206 | 7.0 | 17.4 | 0.00 | 0.00 | 0.00 | 29 | 1009.6 |
| 20260508184957 | 63 | 281 | 7.8 | 13.9 | 0.00 | 0.00 | 0.00 | 28 | 1009.6 |
| 20260508182958 | 63 | 258 | 11.3 | 14.8 | 0.00 | 0.00 | 0.00 | 30 | 1009.8 |
| 20260508180958 | 63 | 261 | 11.3 | 16.5 | 0.00 | 0.00 | 0.00 | 29 | 1010.1 |
| 20260508180006 | 62 | 254 | 7.8 | 13.0 | 0.00 | 0.00 | 0.00 | 32 | 1010.0 |
| 20260508175001 | 62 | 223 | 3.5 | 13.9 | 0.00 | 0.00 | 0.00 | 33 | 1010.2 |
| 20260508174001 | 62 | 304 | 4.3 | 10.4 | 0.00 | 0.00 | 0.00 | 34 | 1010.4 |
| 20260508173009 | 62 | 292 | 7.0 | 13.0 | 0.00 | 0.00 | 0.00 | 33 | 1010.6 |
| 20260508172000 | 62 | 244 | 9.6 | 13.9 | 0.00 | 0.00 | 0.00 | 35 | 1010.7 |
| 20260508171000 | 61 | 304 | 3.5 | 7.8 | 0.00 | 0.00 | 0.00 | 38 | 1010.8 |
| 20260508170005 | 61 | 226 | 3.5 | 9.6 | 0.00 | 0.00 | 0.00 | 41 | 1011.0 |
| 20260508164959 | 60 | 151 | 2.6 | 7.8 | 0.00 | 0.00 | 0.00 | 37 | 1011.2 |
| 20260508162959 | 59 | 256 | 4.3 | 13.9 | 0.00 | 0.00 | 0.00 | 41 | 1011.6 |
| 20260508162000 | 58 | 209 | 7.0 | 12.2 | 0.00 | 0.00 | 0.00 | 46 | 1011.7 |
| 20260508160959 | 58 | 229 | 6.1 | 11.3 | 0.00 | 0.00 | 0.00 | 43 | 1011.8 |
| 20260508160004 | 58 | 91 | 1.7 | 7.8 | 0.00 | 0.00 | 0.00 | 41 | 1011.8 |
| 20260508153007 | 58 | 360 | 7.0 | 9.6 | 0.00 | 0.00 | 0.00 | 40 | 1011.9 |
| 20260508151958 | 56 | 177 | 2.6 | 7.0 | 0.00 | 0.00 | 0.00 | 44 | 1011.9 |
| 20260508150958 | 56 | 209 | 1.7 | 6.1 | 0.00 | 0.00 | 0.00 | 47 | 1012.0 |
| 20260508150003 | 55 | 200 | 4.3 | 7.0 | 0.00 | 0.00 | 0.00 | 49 | 1012.2 |
| 20260508144958 | 55 | 261 | 0.0 | 6.1 | 0.00 | 0.00 | 0.00 | 52 | 1012.2 |
| 20260508144001 | 55 | 331 | 1.7 | 3.5 | 0.00 | 0.00 | 0.00 | 47 | 1012.3 |
| 20260508142958 | 54 | 205 | 0.9 | 5.2 | 0.00 | 0.00 | 0.00 | 61 | 1012.4 |
| 20260508140958 | 53 | 190 | 2.6 | 5.2 | 0.00 | 0.00 | 0.00 | 69 | 1012.6 |
| 20260508140005 | 52 | 163 | 3.5 | 5.2 | 0.00 | 0.00 | 0.00 | 70 | 1012.5 |
| 20260508134002 | 51 | 198 | 3.5 | 6.1 | 0.00 | 0.00 | 0.00 | 77 | 1012.5 |
| 20260508133001 | 50 | 226 | 1.7 | 4.3 | 0.00 | 0.00 | 0.00 | 77 | 1012.7 |
| 20260508132000 | 49 | 206 | 2.6 | 5.2 | 0.00 | 0.00 | 0.00 | 81 | 1012.7 |
| 20260508131000 | 49 | 188 | 3.5 | 4.3 | 0.00 | 0.00 | 0.00 | 83 | 1012.9 |
| 20260508130002 | 48 | 182 | 2.6 | 5.2 | 0.00 | 0.00 | 0.00 | 85 | 1012.9 |
| 20260508123956 | 45 | 219 | 2.6 | 3.5 | 0.00 | 0.00 | 0.00 | 90 | 1013.0 |
| 20260508123001 | 44 | 204 | 0.9 | 3.5 | 0.00 | 0.00 | 0.00 | 92 | 1012.8 |
| 20260508121958 | 42 | 156 | 2.6 | 4.3 | 0.00 | 0.00 | 0.00 | 92 | 1012.8 |
| 20260508120959 | 41 | 184 | 1.7 | 3.5 | 0.00 | 0.00 | 0.00 | 92 | 1012.6 |
| 20260508120005 | 39 | 239 | 0.0 | 0.9 | 0.00 | 0.00 | 0.00 | 93 | 1012.5 |
| 20260508115001 | 38 | 239 | 0.0 | 0.0 | 0.00 | 0.00 | 0.00 | 93 | 1012.4 |
| 20260508113958 | 36 | 239 | 0.0 | 1.7 | 0.00 | 0.00 | 0.00 | 93 | 1012.4 |
| 20260508112959 | 36 | 250 | 0.9 | 1.7 | 0.00 | 0.00 | 0.00 | 93 | 1012.3 |
| 20260508111959 | 34 | 88 | 0.0 | 0.9 | 0.00 | 0.00 | 0.00 | 93 | 1012.3 |
| 20260508110959 | 34 | 51 | 0.0 | 0.9 | 0.00 | 0.00 | 0.00 | 92 | 1012.2 |
| 20260508105000 | 33 | 258 | 0.0 | 1.7 | 0.00 | 0.00 | 0.00 | 92 | 1012.2 |
| 20260508103956 | 34 | 275 | 0.0 | 0.9 | 0.00 | 0.00 | 0.00 | 92 | 1012.1 |
| 20260508103000 | 33 | 286 | 0.0 | 1.7 | 0.00 | 0.00 | 0.00 | 92 | 1012.0 |
| 20260508102001 | 34 | 289 | 0.0 | 0.9 | 0.00 | 0.00 | 0.00 | 92 | 1011.9 |
| 20260508094003 | 34 | 192 | 0.0 | 0.0 | 0.00 | 0.00 | 0.00 | 92 | 1012.0 |
| 20260508093000 | 35 | 192 | 0.0 | 0.0 | 0.00 | 0.00 | 0.00 | 92 | 1011.9 |
| 20260508092001 | 35 | 192 | 0.0 | 0.0 | 0.00 | 0.00 | 0.00 | 92 | 1012.1 |
| 20260508091001 | 35 | 192 | 0.0 | 0.0 | 0.00 | 0.00 | 0.00 | 92 | 1012.1 |
| 20260508090004 | 35 | 192 | 0.0 | 0.0 | 0.00 | 0.00 | 0.00 | 92 | 1012.1 |
| 20260508085002 | 35 | 192 | 0.0 | 0.0 | 0.00 | 0.00 | 0.00 | 92 | 1012.1 |
| 20260508083959 | 35 | 192 | 0.0 | 0.0 | 0.00 | 0.00 | 0.00 | 91 | 1012.1 |
| 20260508083002 | 34 | 192 | 0.0 | 0.0 | 0.00 | 0.00 | 0.00 | 91 | 1012.2 |
| 20260508082000 | 35 | 192 | 0.0 | 0.0 | 0.00 | 0.00 | 0.00 | 91 | 1012.2 |
| 20260508080958 | 35 | 192 | 0.0 | 0.0 | 0.00 | 0.00 | 0.00 | 91 | 1012.2 |
| 20260508075000 | 36 | 192 | 2.6 | 3.5 | 0.00 | 0.00 | 0.00 | 91 | 1012.2 |
| 20260508073959 | 35 | 250 | 0.0 | 2.6 | 0.00 | 0.00 | 0.00 | 91 | 1012.2 |
| 20260508072001 | 36 | 250 | 1.7 | 2.6 | 0.00 | 0.00 | 0.00 | 91 | 1012.5 |
| 20260508071000 | 36 | 250 | 0.9 | 1.7 | 0.00 | 0.00 | 0.00 | 90 | 1012.7 |
| 20260508070002 | 37 | 250 | 0.9 | 1.7 | 0.00 | 0.00 | 0.00 | 90 | 1012.7 |
| 20260508064002 | 37 | 250 | 0.9 | 2.6 | 0.00 | 0.00 | 0.00 | 89 | 1012.8 |
| 20260508063001 | 38 | 250 | 0.0 | 0.0 | 0.00 | 0.00 | 0.00 | 90 | 1012.8 |
| 20260508061957 | 38 | 250 | 0.0 | 0.0 | 0.00 | 0.00 | 0.00 | 89 | 1013.0 |
| 20260508061000 | 38 | 250 | 0.0 | 0.0 | 0.00 | 0.00 | 0.00 | 88 | 1013.0 |
| 20260508060001 | 39 | 250 | 0.0 | 0.0 | 0.00 | 0.00 | 0.00 | 89 | 1013.1 |
| 20260508054957 | 39 | 250 | 0.0 | 0.0 | 0.00 | 0.00 | 0.00 | 89 | 1013.0 |
| 20260508053957 | 39 | 250 | 0.0 | 0.0 | 0.00 | 0.00 | 0.00 | 88 | 1012.9 |